| time (UTC) | temp F | wind direction | speed knots | gust knots | rain 1hr in | rain 24hr in | rain mn in | humidity % | barometer mb |
| 20260508140057 | 49 | 120 | 1.7 | 7.0 | 0.00 | 0.00 | 0.00 | 89 | 1018.4 |
| 20260508134544 | 49 | 219 | 1.7 | 6.1 | 0.00 | 0.00 | 0.00 | 89 | 1018.2 |
| 20260508133047 | 49 | 212 | 0.9 | 7.0 | 0.00 | 0.00 | 0.00 | 90 | 1018.1 |
| 20260508131553 | 48 | 186 | 0.0 | 3.5 | 0.00 | 0.00 | 0.00 | 90 | 1017.7 |
| 20260508130104 | 48 | 218 | 0.9 | 2.6 | 0.00 | 0.00 | 0.00 | 90 | 1017.7 |
| 20260508124535 | 48 | 188 | 0.9 | 3.5 | 0.00 | 0.00 | 0.00 | 90 | 1017.7 |
| 20260508123040 | 48 | 215 | 1.7 | 4.3 | 0.00 | 0.00 | 0.00 | 91 | 1017.6 |
| 20260508121541 | 48 | 210 | 1.7 | 3.5 | 0.00 | 0.00 | 0.00 | 91 | 1017.6 |
| 20260508120045 | 48 | 189 | 1.7 | 4.3 | 0.00 | 0.00 | 0.00 | 91 | 1017.8 |
| 20260508114528 | 47 | 220 | 0.9 | 3.5 | 0.00 | 0.00 | 0.00 | 92 | 1017.5 |
| 20260508113037 | 47 | 188 | 0.9 | 3.5 | 0.00 | 0.00 | 0.00 | 92 | 1017.5 |
| 20260508111537 | 46 | 188 | 0.9 | 2.6 | 0.00 | 0.00 | 0.00 | 92 | 1017.5 |
| 20260508110053 | 44 | 214 | 0.0 | 1.7 | 0.00 | 0.00 | 0.00 | 92 | 1017.3 |
| 20260508104525 | 44 | 214 | 0.0 | 0.0 | 0.00 | 0.00 | 0.00 | 92 | 1017.0 |
| 20260508103035 | 43 | 214 | 0.0 | 0.9 | 0.00 | 0.00 | 0.00 | 92 | 1017.1 |
| 20260508101536 | 43 | 214 | 0.0 | 0.0 | 0.00 | 0.00 | 0.00 | 92 | 1017.0 |
| 20260508100016 | 43 | 214 | 0.0 | 0.0 | 0.00 | 0.00 | 0.00 | 92 | 1017.0 |
| 20260508094518 | 43 | 214 | 0.0 | 0.0 | 0.00 | 0.00 | 0.00 | 92 | 1016.9 |
| 20260508093039 | 43 | 214 | 0.0 | 0.0 | 0.00 | 0.00 | 0.00 | 92 | 1016.8 |
| 20260508091525 | 44 | 214 | 0.0 | 0.0 | 0.00 | 0.00 | 0.00 | 92 | 1016.6 |
| 20260508090023 | 44 | 214 | 0.0 | 1.7 | 0.00 | 0.00 | 0.00 | 92 | 1016.7 |
| 20260508084521 | 44 | 214 | 0.0 | 0.9 | 0.00 | 0.00 | 0.00 | 92 | 1016.7 |
| 20260508083022 | 44 | 214 | 0.0 | 0.0 | 0.00 | 0.00 | 0.00 | 92 | 1016.6 |
| 20260508081517 | 44 | 214 | 0.0 | 0.0 | 0.00 | 0.00 | 0.00 | 92 | 1016.6 |
| 20260508080047 | 44 | 214 | 0.0 | 0.0 | 0.00 | 0.00 | 0.00 | 92 | 1016.7 |
| 20260508074535 | 44 | 214 | 0.0 | 0.0 | 0.00 | 0.00 | 0.00 | 92 | 1016.8 |
| 20260508073031 | 44 | 214 | 0.0 | 0.0 | 0.00 | 0.00 | 0.00 | 92 | 1016.6 |
| 20260508071535 | 44 | 214 | 0.0 | 0.0 | 0.00 | 0.00 | 0.00 | 92 | 1016.9 |
| 20260508070048 | 44 | 214 | 0.0 | 0.0 | 0.00 | 0.00 | 0.00 | 91 | 1016.9 |
| 20260508064532 | 44 | 214 | 0.0 | 0.0 | 0.00 | 0.00 | 0.00 | 91 | 1017.0 |
| 20260508063036 | 44 | 214 | 0.0 | 0.0 | 0.00 | 0.00 | 0.00 | 91 | 1017.1 |
| 20260508061539 | 44 | 214 | 0.0 | 0.0 | 0.00 | 0.00 | 0.00 | 91 | 1017.0 |
| 20260508060044 | 44 | 214 | 0.0 | 0.0 | 0.00 | 0.00 | 0.00 | 91 | 1017.2 |
| 20260508054527 | 45 | 214 | 0.0 | 0.0 | 0.00 | 0.00 | 0.00 | 91 | 1017.3 |
| 20260508053031 | 45 | 214 | 0.0 | 0.0 | 0.00 | 0.00 | 0.00 | 91 | 1017.4 |
| 20260508051506 | 45 | 214 | 0.0 | 0.9 | 0.00 | 0.00 | 0.00 | 90 | 1017.4 |
| 20260508050124 | 45 | 214 | 0.0 | 0.0 | 0.00 | 0.00 | 0.00 | 90 | 1017.4 |
| 20260508044507 | 46 | 214 | 0.0 | 0.0 | 0.00 | 0.00 | 0.00 | 89 | 1017.3 |
| 20260508043015 | 47 | 214 | 0.0 | 0.0 | 0.00 | 0.00 | 0.00 | 88 | 1017.3 |
| 20260508041519 | 48 | 214 | 0.0 | 0.0 | 0.00 | 0.00 | 0.00 | 87 | 1017.4 |
| 20260508040008 | 49 | 214 | 0.0 | 0.9 | 0.00 | 0.00 | 0.00 | 87 | 1017.3 |
| 20260508034512 | 50 | 214 | 0.0 | 0.0 | 0.00 | 0.00 | 0.00 | 86 | 1017.4 |
| 20260508033017 | 50 | 214 | 0.0 | 1.7 | 0.00 | 0.00 | 0.00 | 85 | 1017.5 |
| 20260508031514 | 51 | 238 | 0.0 | 2.6 | 0.00 | 0.00 | 0.00 | 84 | 1017.4 |
| 20260508030125 | 51 | 213 | 0.9 | 3.5 | 0.00 | 0.00 | 0.00 | 83 | 1017.5 |
| 20260508024505 | 51 | 219 | 1.7 | 4.3 | 0.00 | 0.00 | 0.00 | 84 | 1017.5 |
| 20260508023016 | 51 | 204 | 1.7 | 7.0 | 0.00 | 0.00 | 0.00 | 84 | 1017.7 |
| 20260508021514 | 51 | 231 | 1.7 | 5.2 | 0.00 | 0.00 | 0.00 | 84 | 1017.9 |
| 20260508020121 | 51 | 197 | 2.6 | 6.1 | 0.00 | 0.00 | 0.00 | 84 | 1018.0 |
| 20260508014506 | 52 | 220 | 1.7 | 7.8 | 0.00 | 0.00 | 0.00 | 82 | 1018.1 |
| 20260508013006 | 53 | 210 | 3.5 | 7.0 | 0.00 | 0.00 | 0.00 | 80 | 1018.2 |
| 20260508011509 | 54 | 203 | 3.5 | 8.7 | 0.00 | 0.00 | 0.00 | 82 | 1018.3 |
| 20260508010117 | 55 | 225 | 4.3 | 7.8 | 0.00 | 0.00 | 0.00 | 81 | 1018.3 |
| 20260508004517 | 55 | 211 | 2.6 | 7.0 | 0.00 | 0.00 | 0.00 | 79 | 1018.3 |
| 20260508003019 | 57 | 200 | 2.6 | 6.1 | 0.00 | 0.00 | 0.00 | 75 | 1018.4 |
| 20260508001526 | 59 | 217 | 2.6 | 5.2 | 0.00 | 0.00 | 0.00 | 71 | 1018.3 |
| 20260508000004 | 60 | 239 | 0.9 | 3.5 | 0.00 | 0.00 | 0.00 | 71 | 1018.3 |
| 20260507234508 | 60 | 230 | 1.7 | 3.5 | 0.00 | 0.00 | 0.00 | 72 | 1018.4 |
| 20260507233011 | 60 | 339 | 0.9 | 2.6 | 0.00 | 0.00 | 0.00 | 73 | 1018.4 |
| 20260507231515 | 60 | 323 | 1.7 | 4.3 | 0.00 | 0.00 | 0.00 | 73 | 1018.5 |
| 20260507230121 | 61 | 301 | 1.7 | 5.2 | 0.00 | 0.00 | 0.00 | 73 | 1018.6 |
| 20260507224503 | 61 | 347 | 1.7 | 5.2 | 0.00 | 0.00 | 0.00 | 70 | 1018.7 |
| 20260507223007 | 61 | 342 | 0.9 | 3.5 | 0.00 | 0.00 | 0.00 | 71 | 1018.8 |
| 20260507221524 | 61 | 355 | 1.7 | 4.3 | 0.00 | 0.00 | 0.00 | 71 | 1019.0 |
| 20260507220004 | 61 | 344 | 0.9 | 4.3 | 0.00 | 0.00 | 0.00 | 71 | 1019.1 |
| 20260507214508 | 61 | 326 | 0.0 | 4.3 | 0.00 | 0.00 | 0.00 | 72 | 1019.2 |
| 20260507213123 | 60 | 342 | 0.9 | 3.5 | 0.00 | 0.00 | 0.00 | 72 | 1019.4 |
| 20260507211530 | 60 | 353 | 0.9 | 5.2 | 0.00 | 0.00 | 0.00 | 71 | 1019.6 |
| 20260507210042 | 60 | 276 | 0.9 | 4.3 | 0.00 | 0.00 | 0.00 | 74 | 1019.7 |
| 20260507204527 | 60 | 221 | 1.7 | 6.1 | 0.00 | 0.00 | 0.00 | 70 | 1019.9 |
| 20260507203031 | 59 | 240 | 0.9 | 6.1 | 0.00 | 0.00 | 0.00 | 70 | 1020.1 |
| 20260507201537 | 59 | 252 | 1.7 | 5.2 | 0.00 | 0.00 | 0.00 | 74 | 1020.3 |
| 20260507200034 | 59 | 238 | 0.9 | 7.0 | 0.00 | 0.00 | 0.00 | 73 | 1020.4 |
| 20260507194523 | 59 | 207 | 0.0 | 5.2 | 0.00 | 0.00 | 0.00 | 72 | 1020.5 |
| 20260507193134 | 58 | 240 | 0.9 | 4.3 | 0.00 | 0.00 | 0.00 | 75 | 1020.6 |
| 20260507191542 | 57 | 221 | 0.0 | 6.1 | 0.00 | 0.00 | 0.00 | 76 | 1020.7 |
| 20260507190032 | 56 | 235 | 1.7 | 5.2 | 0.00 | 0.00 | 0.00 | 78 | 1020.8 |
| 20260507184527 | 56 | 228 | 1.7 | 6.1 | 0.00 | 0.00 | 0.00 | 75 | 1020.9 |
| 20260507183041 | 56 | 199 | 2.6 | 6.1 | 0.00 | 0.00 | 0.00 | 72 | 1020.9 |
| 20260507181551 | 56 | 200 | 0.9 | 6.1 | 0.00 | 0.00 | 0.00 | 75 | 1020.9 |
| 20260507180056 | 55 | 236 | 1.7 | 7.0 | 0.00 | 0.00 | 0.00 | 77 | 1020.8 |
| 20260507174541 | 54 | 193 | 2.6 | 6.1 | 0.00 | 0.00 | 0.00 | 74 | 1020.8 |
| 20260507173103 | 54 | 233 | 2.6 | 6.1 | 0.00 | 0.00 | 0.00 | 76 | 1021.0 |
| 20260507171550 | 55 | 259 | 2.6 | 7.8 | 0.00 | 0.00 | 0.00 | 75 | 1021.0 |
| 20260507170054 | 54 | 181 | 3.5 | 7.8 | 0.00 | 0.00 | 0.00 | 77 | 1020.9 |
| 20260507164541 | 53 | 183 | 3.5 | 7.8 | 0.00 | 0.00 | 0.00 | 76 | 1021.0 |
| 20260507163044 | 53 | 199 | 3.5 | 8.7 | 0.00 | 0.00 | 0.00 | 76 | 1021.1 |
| 20260507161617 | 53 | 238 | 1.7 | 7.0 | 0.00 | 0.00 | 0.00 | 77 | 1021.1 |
| 20260507160120 | 51 | 214 | 0.9 | 6.1 | 0.00 | 0.00 | 0.00 | 79 | 1021.2 |
| 20260507154552 | 51 | 187 | 0.9 | 3.5 | 0.00 | 0.00 | 0.00 | 79 | 1021.3 |
| 20260507153056 | 51 | 204 | 2.6 | 4.3 | 0.00 | 0.00 | 0.00 | 82 | 1021.4 |
| 20260507151600 | 50 | 172 | 2.6 | 4.3 | 0.00 | 0.00 | 0.00 | 84 | 1021.4 |
| 20260507144601 | 49 | 212 | 0.0 | 1.7 | 0.00 | 0.00 | 0.00 | 88 | 1021.4 |
| 20260507143108 | 48 | 212 | 0.0 | 1.7 | 0.00 | 0.00 | 0.00 | 90 | 1021.3 |
| 20260507141625 | 48 | 192 | 0.0 | 0.0 | 0.00 | 0.00 | 0.00 | 91 | 1021.3 |